GLOBALSTAR M078

Last updated on Sun Jun 21 2026 00:03:18 GMT+0000 (Coordinated Universal Time)

1 39076U 13005E 26171.44824098 -.00000115 00000+0 -62448-4 0 9996 2 39076 51.9879 273.6798 0000501 242.1310 117.9506 12.62257853616426
UTC large
Height (km)
Speed (km/s)
/
Latitude / Longitude
Inclination (degrees)
Orbital Period (minutes)
Azimuth
Elevation
Range (km)
Doppler Factor

Next 0 passes for location: London (51.5072 / 0.1276)

No passes found over London.
GLOBALSTAR M078